weather.gov     
National Weather Service

Terminal Aerodrome Forecast
NWS Homepage
This page is being discontinued on March 12, 2014.
The same data is available at this site. Please update your bookmarks.
Thank you, and we apologize for the inconvenience.
Please send an email to SR-SRH.Webmaster@noaa.gov with any concerns.


Current Version
Previous Version:    01  02  03  04  05  06  07  08  09  10  11  12  13  14  15  16  17  18  19  20  21  22  23  24  25  26  27  28  29  30  
   31  32  33  34  35  36  37  38  39  40  41  
[Printable]
786
FTUS46 KPQR 302320
TAFAST
TAF
KAST 302320Z 3100/3124 33007KT P6SM SKC
     FM310400 00000KT 3SM BR BKN002
     FM310800 00000KT 1/2SM FG BKN002
     FM311000 00000KT 1/4SM FG VV002
     FM311800 00000KT 4SM BR BKN003
     FM312000 08006KT P6SM SCT007=




786
FTUS46 KPQR 302320
TAFAST
TAF
KAST 302320Z 3100/3124 33007KT P6SM SKC
     FM310400 00000KT 3SM BR BKN002
     FM310800 00000KT 1/2SM FG BKN002
     FM311000 00000KT 1/4SM FG VV002
     FM311800 00000KT 4SM BR BKN003
     FM312000 08006KT P6SM SCT007=


U.S. Dept. of Commerce
NOAA National Weather Service
1325 East West Highway
Silver Spring, MD 20910
E-mail: w-nws.webmaster@noaa.gov
Page last modified: May 16, 2007
NATIONAL WEATHER SERVICE: for Safety, for Work, for Fun - FOR LIFE